World > North America > United States > Texas > Jacksonville   City of Jacksonville, TX

Jacksonville, TX Hourly Weather Updates

Feedback E-mail the Weather

Quick Clicks

Jacksonville, TX Weather Maps

°F °C°F °C
Jacksonville Weather Map
UTC Time: 5/25/2024, 23:15
Your Time:

Jacksonville, TX Regional Weather

Expires:202405260000;;865883
ASUS44 KFWD 252315
RWRTX 
NORTH TEXAS HOURLY WEATHER ROUNDUP
NATIONAL WEATHER SERVICE FORT WORTH TX
600 PM CDT SAT MAY 25 2024

NOTE: "FAIR" INDICATES FEW OR NO CLOUDS BELOW 12,000 FEET WITH NO
SIGNIFICANT WEATHER AND/OR OBSTRUCTIONS TO VISIBILITY.


TXZ095>097-106>112-122>126-135>138-148>153-164>167-260000-
EAST TEXAS
  
CITY           SKY/WX    TMP DP  RH WIND       PRES   REMARKS
PARIS          FAIR      82  80  94 SE3       29.77R HX  94           
SULPHUR SPRNGS FAIR      85  78  79 E5        29.77R HAZE    HX  95   
MOUNT PLEASANT FAIR      85  80  86 SE5       29.76R FOG     HX  98   
MINEOLA        FAIR      86  79  79 CALM      29.75R HAZE    HX  99   
TYLER          FAIR      89  78  70 SE10      29.74R HAZE    HX 103   
LONGVIEW       PTSUNNY   89  80  74 SE10      29.75R HX 106           
MARSHALL       FAIR      85  82  88 SE5       29.76R HX 102           
ATHENS         FAIR      88  77  70 SE3       29.72S HX 100           
PALESTINE      FAIR      88  81  79 SE6       29.71F HAZE    HX 105   
JACKSONVILLE   FAIR      87  77  74 S5        29.79R HX  98           
HENDERSON      FAIR      92  78  63 SE8       29.77R HX 108           
CENTER         FAIR      90  75  62 S6        29.78R HX 100           
NACOGDOCHES    FAIR      89  79  72 S7        29.77R HX 104           
LUFKIN         FAIR      90  77  65 S9        29.76R HX 103           
$$

SUPPLEMENTAL OBSERVATIONS (NWS FORT WORTH AREA)
  
CITY           SKY/WX    TMP DP  RH WIND       PRES   REMARKS
CADDO GRASSLND   N/A     82  77  83 S7          N/A  HX  91           
LBJ GRASSLAND    N/A     86  77  74 SE8G17      N/A  HX  97           
POSSUM KINGDOM   N/A     93  73  52 SE14G25     N/A  HX 102           
GRANBURY         N/A     88  75  66 S22G28      N/A  HX  97           
COMANCHE         N/A     90  73  58 SE15        N/A  HX  98           
MCGREGOR         N/A     93  75  55 S16G26      N/A  HX 104           
LAKE LIMESTONE   N/A     91  77  62 SE7G15      N/A  HX 105           
$$

SUPPLEMENTAL OBSERVATIONS (NWS NORMAN AREA)
  
CITY           SKY/WX    TMP DP  RH WIND       PRES   REMARKS
GOODLETT         N/A     90  68  48 SE23      29.57  HX  93           
ODELL            N/A     83  71  68 SE18      29.62F                  
CROWELL          N/A     88  71  56 SE14      29.61F HX  93           
KNOX CITY        N/A     94  69  44 S25       29.58  HX 100           
SEYMOUR          N/A     84  73  69 E16       29.61F HX  91           
MILLERS CREEK    N/A     91  72  52 S18G24      N/A  HX  98           
$$

SUPPLEMENTAL OBSERVATIONS (NWS SAN ANGELO AREA)
  
CITY           SKY/WX    TMP DP  RH WIND       PRES   REMARKS
WEINERT          N/A     95  65  37 S22       29.61S HX  97           
HASKELL          N/A     93  61  34 S17G29    29.61  HX  92           
THROCKMORTON     N/A     91  73  54 S15       29.63  HX  99           
STAMFORD         N/A     94  69  43 S22       29.63  HX  99           
CLYDE            N/A     87  72  60 SE16      29.69S HX  93           
HAMBY            N/A     91  68  46 SE12G26     N/A  HX  95           
IVIE RESERVOIR   N/A     99  66  34 S17G26      N/A  HX 102           
COLORADO BEND    N/A     93  70  46 SE14G22     N/A  HX  99           
$$

SUPPLEMENTAL OBSERVATIONS (NWS SHREVEPORT AREA)
  
CITY           SKY/WX    TMP DP  RH WIND       PRES   REMARKS
TEXARKANA        N/A     86  79  79 SE2         N/A  HX  99           
CADDO LAKE       N/A     88  79  74 CALM        N/A  HX 102           
LUFKIN           N/A     90  77  66 MISG        N/A  HX 102           
N SABINE NF      N/A     90  77  66 MISG        N/A  HX 102           
$$

SUPPLEMENTAL OBSERVATIONS ARE A COLLECTION OF AUTOMATED INSTRUMENTS
THAT ARE MAINTAINED BY A VARIETY OF FEDERAL AND STATE AGENCIES. 
CERTAIN ELEMENTS...SUCH AS HUMIDITY VALUES AND SUSTAINED WIND 
SPEEDS...MAY BE APPROXIMATED.

  

SKY/WX - Weather  TMP - Temperature  DP - Dew Point  RH - Humidity
WIND - Wind Direction/Speed PRES - Barometric Pressure VSB - Visibility
WCI - Wind Chill Index E13G22 Wind - East Wind 13 mph/Gusts of 22 mph

Trending Headlines

Trending Entertainment Headlines

Jacksonville Radar Loop

Use the map search tool if you want to place a location marker on the radar map...

Jacksonville Quick Facts

National Two Day Weather Forecast


E-mail the Jacksonville Weather Forecast

Voice your opinion or tell us about page issues...